Flag for Denmark Weather past 2 weeks in Aarhus, Denmark

Now
64 °F

Mild.


Feels Like: 64 °F
Forecast: 62 / 78 °F
Wind: 9 mph from Southeast

Location: Tirstrup

Current Time: Jul 2, 2015 at 11:54:34 PM

Latest Report: Jul 2, 2015 at 11:20 PM


Visibility: N/A

Pressure: 30.30 "Hg

Humidity: 60%

Dew point: 50 °F

Location of AarhusLocation

Historic Weather in Aarhus — Graph

°F

Aarhus temperature yesterday

Maximum temperature yesterday: 75 °F (at 4:50 PM)
Minimum temperature yesterday: 48 °F (at 4:50 AM)
Average temperature yesterday: 64 °F

Past Weeks' High & Low Weather Summary

 TemperatureHumidityPressure
High77 °F (Jul 2, 12:50 PM)94% (Jun 20, 5:20 AM)30.33 "Hg (Jun 20, 5:20 AM)
Low41 °F (Jun 23, 4:50 AM)25% (Jul 1, 3:50 PM)29.62 "Hg (Jun 22, 4:50 PM)
Average58 °F68%29.97 "Hg
* Reported Jun 17 10:20 PM — Jul 2 10:20 PM, Aarhus, Weather by CustomWeather, © 2015

Note: Actual official high and low records may vary slightly from our data, if they occured in-between our weather recording intervals... More about our weather records

Advertising

Aarhus weather history for previous 24 hours

 ConditionsComfort  
Time TempWeatherWind HumidityBarometerVisibility
10:20 PM
Thu, Jul 2
66 °FMild.13 mph52%30.27 "HgN/A
9:50 PM68 °FMild.14 mph49%30.27 "HgN/A
9:20 PM68 °FMild.14 mph46%30.27 "HgN/A
8:50 PM70 °FMild.13 mph40%30.27 "HgN/A
8:20 PM70 °FMild.13 mph38%30.30 "HgN/A
7:50 PM72 °FMild.13 mph33%30.30 "HgN/A
7:20 PM72 °FMild.13 mph31%30.30 "HgN/A
6:50 PM73 °FMild.12 mph29%30.30 "HgN/A
6:20 PM75 °FMild.14 mph25%30.30 "HgN/A
5:50 PM75 °FMild.14 mph25%30.30 "HgN/A
5:20 PM75 °FMild.15 mph27%30.30 "HgN/A
4:50 PM75 °FMild.12 mph29%30.30 "HgN/A
4:20 PM75 °FMild.15 mph29%30.30 "HgN/A
3:50 PM77 °FPleasantly warm.15 mph28%30.30 "HgN/A
3:20 PM77 °FPleasantly warm.15 mph30%30.30 "HgN/A
2:50 PM77 °FPleasantly warm.17 mph32%30.30 "HgN/A
2:20 PM77 °FPleasantly warm.14 mph34%30.30 "HgN/A
1:50 PM77 °FPleasantly warm.14 mph36%30.30 "HgN/A
1:20 PM77 °FPleasantly warm.14 mph39%30.33 "HgN/A
12:50 PM77 °FWarm.14 mph42%30.33 "HgN/A
12:20 PM75 °FMild.13 mph44%30.33 "HgN/A
11:50 AM75 °FMild.13 mph47%30.33 "HgN/A
11:20 AM73 °FMild.12 mph50%30.33 "HgN/A
10:50 AM72 °FMild.12 mph53%30.33 "HgN/A
10:20 AM72 °FMild.12 mph57%30.33 "HgN/A
9:50 AM70 °FMild.10 mph57%30.33 "HgN/A
9:20 AM68 °FMild.12 mph60%30.33 "HgN/A
8:50 AM68 °FMild.9 mph64%30.30 "HgN/A
8:20 AM66 °FMild.9 mph64%30.30 "HgN/A
7:50 AM66 °FMild.9 mph64%30.33 "HgN/A
7:20 AM64 °FMild.8 mph68%30.30 "HgN/A
6:50 AM63 °FMild.8 mph73%30.30 "HgN/A
6:20 AM63 °FMild.7 mph73%30.30 "HgN/A
5:20 AM61 °FCool.5 mph77%30.30 "HgN/A
4:50 AM61 °FCool.5 mph77%30.30 "HgN/A
4:20 AM61 °FCool.7 mph77%30.30 "HgN/A
3:50 AM61 °FCool.7 mph77%30.30 "HgN/A
3:20 AM61 °FCool.7 mph77%30.30 "HgN/A
2:50 AM61 °FCool.7 mph77%30.30 "HgN/A
2:20 AM61 °FCool.6 mph77%30.30 "HgN/A
1:50 AM61 °FCool.5 mph77%30.30 "HgN/A
1:20 AM61 °FCool.3 mph77%30.30 "HgN/A
12:50 AM61 °FCool.6 mph72%30.30 "HgN/A
12:20 AM61 °FCool.3 mph72%30.30 "HgN/A
11:50 PM
Wed, Jul 1
61 °FCool.2 mph77%30.30 "HgN/A
11:20 PM63 °FMild.3 mph73%30.30 "HgN/A
Weather by CustomWeather, © 2015

See weather overviewHow to use our weather pages